{"data":{"norad_id":66015,"intl_designator":"2025-232L","name":"STARLINK-34622","alt_names":[],"object_type":"PAYLOAD","status":"ACTIVE","operator":null,"country":"US","launch_date":"2025-10-16","launch_site_code":"AFETR","launch_vehicle":null,"mission":null,"orbit_class":"UNKNOWN","rcs_meters":null,"size_class":null,"mass_kg":null,"dimensions":null,"purposes":["comms"],"wikipedia_slug":null,"has_3d_model":false,"image_url":null,"decayed_at":null,"tle_current":{"epoch":"2026-09-20T06:23:02.154624Z","epoch_age_seconds":123356,"freshness":"FRESH","line1":"1 66015U 25232L   26263.26599716  .00012741  00000+0  38747-3 0  9992","line2":"2 66015  53.1582 276.7441 0001620 105.7476 254.3705 15.34408811 53261","mean_motion":15.34408811,"eccentricity":0.000162,"inclination_deg":53.1582,"raan_deg":276.7441,"arg_perigee_deg":105.7476,"mean_anomaly_deg":254.3705,"bstar":0.00038747,"rev_number":5326,"period_min":93.847219181538,"perigee_km":461.56884030713,"apogee_km":463.78526406004,"semimajor_km":6840.8140521836,"source":"CELESTRAK","updated_at":"2026-09-21T09:00:35.770148Z"}}}